����������;��������(kWh)
2018-06-04 00:00;91,8
2018-06-04 00:15;92,35
2018-06-04 00:30;87,15
2018-06-04 00:45;83,7
2018-06-04 01:00;82,55
2018-06-04 01:15;81,5
2018-06-04 01:30;81,65
2018-06-04 01:45;79,5
2018-06-04 02:00;81,65
2018-06-04 02:15;82,4
2018-06-04 02:30;81,35
2018-06-04 02:45;81,9
2018-06-04 03:00;81
2018-06-04 03:15;80,6
2018-06-04 03:30;82,1
2018-06-04 03:45;81,2
2018-06-04 04:00;81,55
2018-06-04 04:15;80,55
2018-06-04 04:30;80,7
2018-06-04 04:45;80,1
2018-06-04 05:00;80,55
2018-06-04 05:15;82,35
2018-06-04 05:30;82,45
2018-06-04 05:45;84,15
2018-06-04 06:00;84,15
2018-06-04 06:15;80,95
2018-06-04 06:30;80
2018-06-04 06:45;80,95
2018-06-04 07:00;80,95
2018-06-04 07:15;82,4
2018-06-04 07:30;85,35
2018-06-04 07:45;94,35
2018-06-04 08:00;100,25
2018-06-04 08:15;102,65
2018-06-04 08:30;107,7
2018-06-04 08:45;115,9
2018-06-04 09:00;124,6
2018-06-04 09:15;185,8
2018-06-04 09:30;191,25
2018-06-04 09:45;185,1
2018-06-04 10:00;174,5
2018-06-04 10:15;189,55
2018-06-04 10:30;201
2018-06-04 10:45;205,05
2018-06-04 11:00;201,8
2018-06-04 11:15;213,35
2018-06-04 11:30;216,75
2018-06-04 11:45;215,65
2018-06-04 12:00;220,3
2018-06-04 12:15;238,2
2018-06-04 12:30;231,7
2018-06-04 12:45;227,3
2018-06-04 13:00;234,15
2018-06-04 13:15;239,1
2018-06-04 13:30;239,75
2018-06-04 13:45;237,65
2018-06-04 14:00;241,55
2018-06-04 14:15;236,25
2018-06-04 14:30;233,3
2018-06-04 14:45;234,85
2018-06-04 15:00;215,15
2018-06-04 15:15;226,45
2018-06-04 15:30;209,55
2018-06-04 15:45;198,4
2018-06-04 16:00;205,5
2018-06-04 16:15;198,25
2018-06-04 16:30;185,35
2018-06-04 16:45;193,85
2018-06-04 17:00;184,3
2018-06-04 17:15;179,15
2018-06-04 17:30;181,45
2018-06-04 17:45;187,05
2018-06-04 18:00;174,25
2018-06-04 18:15;163
2018-06-04 18:30;160,95
2018-06-04 18:45;156,1
2018-06-04 19:00;153,75
2018-06-04 19:15;148,45
2018-06-04 19:30;140,95
2018-06-04 19:45;140,8
2018-06-04 20:00;134,6
2018-06-04 20:15;129,2
2018-06-04 20:30;131,05
2018-06-04 20:45;129,05
2018-06-04 21:00;125,5
2018-06-04 21:15;122,4
2018-06-04 21:30;124,6
2018-06-04 21:45;116,35
2018-06-04 22:00;115,7
2018-06-04 22:15;117,55
2018-06-04 22:30;115,65
2018-06-04 22:45;115,75
2018-06-04 23:00;117,9
2018-06-04 23:15;113,6
2018-06-04 23:30;113,2
2018-06-04 23:45;112,7
2018-06-05 00:00;114,2
2018-06-05 00:15;109,2
2018-06-05 00:30;105,95
2018-06-05 00:45;102,65
2018-06-05 01:00;99,9
2018-06-05 01:15;98,55
2018-06-05 01:30;97,4
2018-06-05 01:45;97,75
2018-06-05 02:00;95,45
2018-06-05 02:15;96,25
2018-06-05 02:30;95,5
2018-06-05 02:45;94,95
2018-06-05 03:00;94,25
2018-06-05 03:15;96,1
2018-06-05 03:30;95,65
2018-06-05 03:45;96,15
2018-06-05 04:00;95,15
2018-06-05 04:15;93,6
2018-06-05 04:30;97,3
2018-06-05 04:45;93,25
2018-06-05 05:00;90,5
2018-06-05 05:15;92,8
2018-06-05 05:30;93,1
2018-06-05 05:45;92,6
2018-06-05 06:00;94,9
2018-06-05 06:15;92,3
2018-06-05 06:30;91,3
2018-06-05 06:45;89,7
2018-06-05 07:00;91,3
2018-06-05 07:15;92
2018-06-05 07:30;94,7
2018-06-05 07:45;97,55
2018-06-05 08:00;101,75
2018-06-05 08:15;112,35
2018-06-05 08:30;121,45
2018-06-05 08:45;125,55
2018-06-05 09:00;135,55
2018-06-05 09:15;202,05
2018-06-05 09:30;210
2018-06-05 09:45;195,75
2018-06-05 10:00;182
2018-06-05 10:15;200,95
2018-06-05 10:30;204,4
2018-06-05 10:45;207,45
2018-06-05 11:00;229,55
2018-06-05 11:15;223,55
2018-06-05 11:30;220,8
2018-06-05 11:45;238,9
2018-06-05 12:00;236,9
2018-06-05 12:15;238,35
2018-06-05 12:30;234,7
2018-06-05 12:45;239,3
2018-06-05 13:00;236,65
2018-06-05 13:15;242,3
2018-06-05 13:30;244,5
2018-06-05 13:45;250,35
2018-06-05 14:00;248
2018-06-05 14:15;246,15
2018-06-05 14:30;254,4
2018-06-05 14:45;245,65
2018-06-05 15:00;244,75
2018-06-05 15:15;240,35
2018-06-05 15:30;236,1
2018-06-05 15:45;230
2018-06-05 16:00;223,35
2018-06-05 16:15;216,2
2018-06-05 16:30;211,9
2018-06-05 16:45;210,45
2018-06-05 17:00;202,6
2018-06-05 17:15;199,35
2018-06-05 17:30;196,85
2018-06-05 17:45;187
2018-06-05 18:00;186,75
2018-06-05 18:15;170,85
2018-06-05 18:30;167,05
2018-06-05 18:45;161,4
2018-06-05 19:00;158,45
2018-06-05 19:15;156,45
2018-06-05 19:30;148,4
2018-06-05 19:45;150,15
2018-06-05 20:00;140,7
2018-06-05 20:15;138,8
2018-06-05 20:30;134,55
2018-06-05 20:45;137,85
2018-06-05 21:00;135,75
2018-06-05 21:15;127,7
2018-06-05 21:30;125
2018-06-05 21:45;120,2
2018-06-05 22:00;118,8
2018-06-05 22:15;116,95
2018-06-05 22:30;118,55
2018-06-05 22:45;116,6
2018-06-05 23:00;120,3
2018-06-05 23:15;117,5
2018-06-05 23:30;113,45
2018-06-05 23:45;118,7
2018-06-06 00:00;109,8
2018-06-06 00:15;110,15
2018-06-06 00:30;111,9
2018-06-06 00:45;109,9
2018-06-06 01:00;103,5
2018-06-06 01:15;96,9
2018-06-06 01:30;91,95
2018-06-06 01:45;93,15
2018-06-06 02:00;92,2
2018-06-06 02:15;92,35
2018-06-06 02:30;89,75
2018-06-06 02:45;90,5
2018-06-06 03:00;90,85
2018-06-06 03:15;88,75
2018-06-06 03:30;94,9
2018-06-06 03:45;94,1
2018-06-06 04:00;92,75
2018-06-06 04:15;93,25
2018-06-06 04:30;92,95
2018-06-06 04:45;93,6
2018-06-06 05:00;93,2
2018-06-06 05:15;94,2
2018-06-06 05:30;97
2018-06-06 05:45;101,35
2018-06-06 06:00;98,9
2018-06-06 06:15;99,5
2018-06-06 06:30;97,3
2018-06-06 06:45;96,1
2018-06-06 07:00;97,85
2018-06-06 07:15;100,2
2018-06-06 07:30;102,55
2018-06-06 07:45;161,55
2018-06-06 08:00;167,65
2018-06-06 08:15;137,75
2018-06-06 08:30;145,1
2018-06-06 08:45;138,45
2018-06-06 09:00;162,4
2018-06-06 09:15;166,65
2018-06-06 09:30;179,1
2018-06-06 09:45;191,4
2018-06-06 10:00;199,3
2018-06-06 10:15;213,6
2018-06-06 10:30;218,4
2018-06-06 10:45;244,9
2018-06-06 11:00;275,25
2018-06-06 11:15;263,3
2018-06-06 11:30;278,6
2018-06-06 11:45;268,85
2018-06-06 12:00;265,8
2018-06-06 12:15;274,65
2018-06-06 12:30;261,55
2018-06-06 12:45;285,25
2018-06-06 13:00;269,65
2018-06-06 13:15;279,75
2018-06-06 13:30;273,55
2018-06-06 13:45;261,75
2018-06-06 14:00;277,25
2018-06-06 14:15;262,6
2018-06-06 14:30;261,75
2018-06-06 14:45;262,8
2018-06-06 15:00;247,2
2018-06-06 15:15;259,4
2018-06-06 15:30;250,9
2018-06-06 15:45;240,2
2018-06-06 16:00;243,45
2018-06-06 16:15;227,45
2018-06-06 16:30;225,1
2018-06-06 16:45;227,3
2018-06-06 17:00;211,75
2018-06-06 17:15;205,05
2018-06-06 17:30;221
2018-06-06 17:45;206,2
2018-06-06 18:00;199,8
2018-06-06 18:15;184,65
2018-06-06 18:30;176,2
2018-06-06 18:45;167,35
2018-06-06 19:00;162,7
2018-06-06 19:15;150,9
2018-06-06 19:30;148,45
2018-06-06 19:45;145,85
2018-06-06 20:00;139
2018-06-06 20:15;138,05
2018-06-06 20:30;138,8
2018-06-06 20:45;137,3
2018-06-06 21:00;133,65
2018-06-06 21:15;128,45
2018-06-06 21:30;125,6
2018-06-06 21:45;119,7
2018-06-06 22:00;117,75
2018-06-06 22:15;112,3
2018-06-06 22:30;111,5
2018-06-06 22:45;110,8
2018-06-06 23:00;112,1
2018-06-06 23:15;111,05
2018-06-06 23:30;107,85
2018-06-06 23:45;112,55
2018-06-07 00:00;109,1
2018-06-07 00:15;107,35
2018-06-07 00:30;107,9
2018-06-07 00:45;106,2
2018-06-07 01:00;106,7
2018-06-07 01:15;102,85
2018-06-07 01:30;91,85
2018-06-07 01:45;94,35
2018-06-07 02:00;89,9
2018-06-07 02:15;88,05
2018-06-07 02:30;87,3
2018-06-07 02:45;87,3
2018-06-07 03:00;90,55
2018-06-07 03:15;89,9
2018-06-07 03:30;89,7
2018-06-07 03:45;90,95
2018-06-07 04:00;91
2018-06-07 04:15;91,9
2018-06-07 04:30;91,25
2018-06-07 04:45;91,3
2018-06-07 05:00;93,3
2018-06-07 05:15;94,05
2018-06-07 05:30;94,85
2018-06-07 05:45;96,75
2018-06-07 06:00;97,85
2018-06-07 06:15;98,7
2018-06-07 06:30;97,55
2018-06-07 06:45;93,9
2018-06-07 07:00;95,75
2018-06-07 07:15;92,5
2018-06-07 07:30;98,6
2018-06-07 07:45;154,9
2018-06-07 08:00;159,9
2018-06-07 08:15;126,6
2018-06-07 08:30;151,95
2018-06-07 08:45;145,1
2018-06-07 09:00;167,85
2018-06-07 09:15;183,45
2018-06-07 09:30;189,8
2018-06-07 09:45;200,35
2018-06-07 10:00;204,5
2018-06-07 10:15;245,3
2018-06-07 10:30;253,65
2018-06-07 10:45;260
2018-06-07 11:00;261,75
2018-06-07 11:15;268,95
2018-06-07 11:30;265,95
2018-06-07 11:45;265,15
2018-06-07 12:00;272,2
2018-06-07 12:15;271,85
2018-06-07 12:30;272,1
2018-06-07 12:45;283,6
2018-06-07 13:00;267,75
2018-06-07 13:15;286,75
2018-06-07 13:30;271,5
2018-06-07 13:45;287,45
2018-06-07 14:00;266,4
2018-06-07 14:15;285,2
2018-06-07 14:30;267,1
2018-06-07 14:45;278,05
2018-06-07 15:00;255,25
2018-06-07 15:15;266,5
2018-06-07 15:30;252,65
2018-06-07 15:45;253,2
2018-06-07 16:00;242
2018-06-07 16:15;231,05
2018-06-07 16:30;230,15
2018-06-07 16:45;214,45
2018-06-07 17:00;229,25
2018-06-07 17:15;205,3
2018-06-07 17:30;220,05
2018-06-07 17:45;204,2
2018-06-07 18:00;204,1
2018-06-07 18:15;184,25
2018-06-07 18:30;179,25
2018-06-07 18:45;177
2018-06-07 19:00;174,7
2018-06-07 19:15;163,2
2018-06-07 19:30;161,9
2018-06-07 19:45;158,2
2018-06-07 20:00;156,85
2018-06-07 20:15;146,45
2018-06-07 20:30;140,7
2018-06-07 20:45;144,6
2018-06-07 21:00;139,1
2018-06-07 21:15;136,35
2018-06-07 21:30;132,6
2018-06-07 21:45;125,7
2018-06-07 22:00;120,3
2018-06-07 22:15;118,6
2018-06-07 22:30;118,95
2018-06-07 22:45;108,8
2018-06-07 23:00;110,1
2018-06-07 23:15;106,4
2018-06-07 23:30;104,45
2018-06-07 23:45;106,15
2018-06-08 00:00;94,7
2018-06-08 00:15;91,6
2018-06-08 00:30;91,15
2018-06-08 00:45;89
2018-06-08 01:00;91,45
2018-06-08 01:15;87,5
2018-06-08 01:30;88,05
2018-06-08 01:45;86,15
2018-06-08 02:00;87,1
2018-06-08 02:15;85,8
2018-06-08 02:30;85,65
2018-06-08 02:45;86,25
2018-06-08 03:00;84,8
2018-06-08 03:15;86
2018-06-08 03:30;86,3
2018-06-08 03:45;85,45
2018-06-08 04:00;86,6
2018-06-08 04:15;84,2
2018-06-08 04:30;85,45
2018-06-08 04:45;86,65
2018-06-08 05:00;85,95
2018-06-08 05:15;86,5
2018-06-08 05:30;87,55
2018-06-08 05:45;88,15
2018-06-08 06:00;88,8
2018-06-08 06:15;93,4
2018-06-08 06:30;88,8
2018-06-08 06:45;87,2
2018-06-08 07:00;88,15
2018-06-08 07:15;87,7
2018-06-08 07:30;91,75
2018-06-08 07:45;152,45
2018-06-08 08:00;155,5
2018-06-08 08:15;122,25
2018-06-08 08:30;149,1
2018-06-08 08:45;178,6
2018-06-08 09:00;191,45
2018-06-08 09:15;206,05
2018-06-08 09:30;190,1
2018-06-08 09:45;209,5
2018-06-08 10:00;208,85
2018-06-08 10:15;211,2
2018-06-08 10:30;231
2018-06-08 10:45;224,5
2018-06-08 11:00;245,1
2018-06-08 11:15;235,1
2018-06-08 11:30;253,5
2018-06-08 11:45;239,15
2018-06-08 12:00;255,8
2018-06-08 12:15;268,7
2018-06-08 12:30;252,2
2018-06-08 12:45;267
2018-06-08 13:00;285,55
2018-06-08 13:15;264,4
2018-06-08 13:30;273,85
2018-06-08 13:45;280,65
2018-06-08 14:00;287,75
2018-06-08 14:15;257,35
2018-06-08 14:30;276,35
2018-06-08 14:45;282,5
2018-06-08 15:00;263,7
2018-06-08 15:15;265,3
2018-06-08 15:30;253,75
2018-06-08 15:45;257,4
2018-06-08 16:00;227,05
2018-06-08 16:15;222,25
2018-06-08 16:30;206,25
2018-06-08 16:45;216,15
2018-06-08 17:00;209,95
2018-06-08 17:15;207,2
2018-06-08 17:30;201,75
2018-06-08 17:45;198,9
2018-06-08 18:00;194,45
2018-06-08 18:15;171,25
2018-06-08 18:30;166,5
2018-06-08 18:45;169,55
2018-06-08 19:00;168,45
2018-06-08 19:15;155,35
2018-06-08 19:30;152,65
2018-06-08 19:45;157,1
2018-06-08 20:00;153,55
2018-06-08 20:15;149,6
2018-06-08 20:30;145,2
2018-06-08 20:45;143,95
2018-06-08 21:00;146,7
2018-06-08 21:15;144,35
2018-06-08 21:30;140,95
2018-06-08 21:45;131,35
2018-06-08 22:00;127,6
2018-06-08 22:15;130,05
2018-06-08 22:30;118,55
2018-06-08 22:45;117,4
2018-06-08 23:00;119,35
2018-06-08 23:15;117,3
2018-06-08 23:30;109,05
2018-06-08 23:45;109,85
2018-06-09 00:00;104,9
2018-06-09 00:15;104,5
2018-06-09 00:30;103,3
2018-06-09 00:45;102,75
2018-06-09 01:00;99,1
2018-06-09 01:15;89,3
2018-06-09 01:30;86,4
2018-06-09 01:45;85,6
2018-06-09 02:00;86,55
2018-06-09 02:15;84,45
2018-06-09 02:30;84,5
2018-06-09 02:45;85,7
2018-06-09 03:00;83,95
2018-06-09 03:15;84,65
2018-06-09 03:30;84,05
2018-06-09 03:45;84,7
2018-06-09 04:00;83,45
2018-06-09 04:15;84
2018-06-09 04:30;83,4
2018-06-09 04:45;84,5
2018-06-09 05:00;82,95
2018-06-09 05:15;84,7
2018-06-09 05:30;83,45
2018-06-09 05:45;87,9
2018-06-09 06:00;88,45
2018-06-09 06:15;87,65
2018-06-09 06:30;86,35
2018-06-09 06:45;85,1
2018-06-09 07:00;84,85
2018-06-09 07:15;83,25
2018-06-09 07:30;80,45
2018-06-09 07:45;83,05
2018-06-09 08:00;80,65
2018-06-09 08:15;83,9
2018-06-09 08:30;86,2
2018-06-09 08:45;85
2018-06-09 09:00;89,05
2018-06-09 09:15;88,75
2018-06-09 09:30;96
2018-06-09 09:45;97,95
2018-06-09 10:00;100,55
2018-06-09 10:15;102,5
2018-06-09 10:30;106,5
2018-06-09 10:45;103,9
2018-06-09 11:00;101,6
2018-06-09 11:15;102,9
2018-06-09 11:30;104,1
2018-06-09 11:45;104,95
2018-06-09 12:00;99,75
2018-06-09 12:15;102,75
2018-06-09 12:30;103,1
2018-06-09 12:45;108,05
2018-06-09 13:00;106,3
2018-06-09 13:15;106,9
2018-06-09 13:30;105,4
2018-06-09 13:45;107,1
2018-06-09 14:00;106,85
2018-06-09 14:15;104,55
2018-06-09 14:30;105,4
2018-06-09 14:45;104,4
2018-06-09 15:00;104,55
2018-06-09 15:15;104,8
2018-06-09 15:30;105,9
2018-06-09 15:45;105,1
2018-06-09 16:00;105,25
2018-06-09 16:15;104,85
2018-06-09 16:30;105,25
2018-06-09 16:45;104,75
2018-06-09 17:00;110,35
2018-06-09 17:15;111,3
2018-06-09 17:30;110,35
2018-06-09 17:45;106,35
2018-06-09 18:00;103
2018-06-09 18:15;101,15
2018-06-09 18:30;100,7
2018-06-09 18:45;101,85
2018-06-09 19:00;103,6
2018-06-09 19:15;103,45
2018-06-09 19:30;103,75
2018-06-09 19:45;105,65
2018-06-09 20:00;104,85
2018-06-09 20:15;104,7
2018-06-09 20:30;102,65
2018-06-09 20:45;105
2018-06-09 21:00;106,75
2018-06-09 21:15;104,9
2018-06-09 21:30;105,1
2018-06-09 21:45;99,8
2018-06-09 22:00;98
2018-06-09 22:15;106,6
2018-06-09 22:30;104
2018-06-09 22:45;104,5
2018-06-09 23:00;105,6
2018-06-09 23:15;96,95
2018-06-09 23:30;93,4
2018-06-09 23:45;94,85
2018-06-10 00:00;91
2018-06-10 00:15;90,5
2018-06-10 00:30;91,1
2018-06-10 00:45;90,85
2018-06-10 01:00;89,9
2018-06-10 01:15;86,95
2018-06-10 01:30;89,9
2018-06-10 01:45;86,1
2018-06-10 02:00;86,85
2018-06-10 02:15;88,1
2018-06-10 02:30;87,6
2018-06-10 02:45;85,85
2018-06-10 03:00;87,55
2018-06-10 03:15;87,05
2018-06-10 03:30;85,45
2018-06-10 03:45;87,15
2018-06-10 04:00;85
2018-06-10 04:15;83,6
2018-06-10 04:30;87,25
2018-06-10 04:45;84,65
2018-06-10 05:00;85,4
2018-06-10 05:15;86,8
2018-06-10 05:30;85,8
2018-06-10 05:45;84,75
2018-06-10 06:00;86,75
2018-06-10 06:15;86,3
2018-06-10 06:30;84,85
2018-06-10 06:45;84,8
2018-06-10 07:00;84,45
2018-06-10 07:15;82,85
2018-06-10 07:30;82,25
2018-06-10 07:45;79,2
2018-06-10 08:00;80,65
2018-06-10 08:15;84,05
2018-06-10 08:30;80,75
2018-06-10 08:45;82,7
2018-06-10 09:00;85,25
2018-06-10 09:15;85,55
2018-06-10 09:30;84,95
2018-06-10 09:45;86,25
2018-06-10 10:00;84,3
2018-06-10 10:15;94,35
2018-06-10 10:30;94,65
2018-06-10 10:45;95,15
2018-06-10 11:00;95,55
2018-06-10 11:15;90,05
2018-06-10 11:30;91,15
2018-06-10 11:45;90,45
2018-06-10 12:00;93,55
2018-06-10 12:15;94,2
2018-06-10 12:30;93,05
2018-06-10 12:45;92,05
2018-06-10 13:00;95,1
2018-06-10 13:15;97,7
2018-06-10 13:30;97,95
2018-06-10 13:45;99,1
2018-06-10 14:00;99,5
2018-06-10 14:15;102,95
2018-06-10 14:30;101,25
2018-06-10 14:45;102,7
2018-06-10 15:00;99,95
2018-06-10 15:15;98,25
2018-06-10 15:30;100,4
2018-06-10 15:45;98,5
2018-06-10 16:00;99,1
2018-06-10 16:15;95,25
2018-06-10 16:30;96,85
2018-06-10 16:45;95,4
2018-06-10 17:00;96,3
2018-06-10 17:15;97,75
2018-06-10 17:30;99
2018-06-10 17:45;104,85
2018-06-10 18:00;106,15
2018-06-10 18:15;106,75
2018-06-10 18:30;110,15
2018-06-10 18:45;100
2018-06-10 19:00;100,35
2018-06-10 19:15;99,6
2018-06-10 19:30;98,3
2018-06-10 19:45;101,15
2018-06-10 20:00;99,2
2018-06-10 20:15;99,05
2018-06-10 20:30;98,2
2018-06-10 20:45;100,4
2018-06-10 21:00;100,9
2018-06-10 21:15;101,7
2018-06-10 21:30;102,05
2018-06-10 21:45;96,35
2018-06-10 22:00;93,8
2018-06-10 22:15;94,15
2018-06-10 22:30;92,25
2018-06-10 22:45;92,8
2018-06-10 23:00;93,7
2018-06-10 23:15;90,55
2018-06-10 23:30;91,1
2018-06-10 23:45;92,75

